Date,TemperatureHighF,TemperatureAvgF,TemperatureLowF,DewpointHighF,DewpointAvgF,DewpointLowF,HumidityHigh,HumidityAvg,HumidityLow,PressureMaxIn,PressureMinIn,WindSpeedMaxMPH,WindSpeedAvgMPH,GustSpeedMaxMPH,PrecipitationSumIn
2013-1-1,46,39,34,36,33,29,95,78,64,30.42,30.24,6,1,17,0.02
2013-1-2,49,42,38,34,30,28,71,63,54,30.25,30.11,7,3,21,0.00
2013-1-3,51,43,37,49,35,27,94,75,60,30.26,30.07,10,5,23,0.14
2013-1-4,54,47,42,51,45,40,95,92,86,30.34,30.15,8,2,14,0.16
2013-1-5,46,43,41,42,40,37,95,88,80,30.20,30.13,6,3,23,0.43
2013-1-6,50,44,38,47,42,37,96,93,85,30.24,30.09,9,4,21,0.37
2013-1-7,52,50,47,51,49,45,96,95,94,30.25,30.05,13,4,28,1.14
2013-1-8,52,51,48,51,50,47,96,95,94,30.24,29.95,16,9,31,0.32
2013-1-9,51,45,38,49,42,36,96,91,83,30.02,29.77,23,9,37,0.76
2013-1-10,44,40,37,42,38,36,97,93,82,30.17,30.02,27,6,37,0.64
2013-1-11,47,39,33,40,35,31,96,86,62,30.32,30.16,21,2,31,0.05
2013-1-12,45,36,31,37,32,29,92,86,72,30.42,30.32,6,0,12,0.01
2013-1-13,42,33,29,34,30,27,93,87,71,30.50,30.42,2,0,9,0.00
2013-1-14,39,34,30,37,32,28,96,92,89,30.57,30.49,1,0,8,0.05
2013-1-15,49,39,35,44,38,34,96,93,84,30.67,30.56,4,0,10,0.05
2013-1-16,48,38,33,40,35,32,96,88,73,30.64,30.43,7,2,16,0.01
2013-1-17,51,42,35,39,35,32,89,77,63,30.43,30.24,7,3,19,0.01
2013-1-18,53,43,36,39,35,32,88,75,60,30.26,30.22,6,2,14,0.00
2013-1-19,55,41,34,45,36,30,91,83,57,30.32,30.23,5,2,13,0.00
2013-1-20,51,39,31,42,34,29,93,82,61,30.33,30.20,7,1,11,0.00
2013-1-21,52,40,32,37,31,28,84,73,55,30.23,30.09,7,4,15,0.00
2013-1-22,51,41,34,35,31,28,77,68,54,30.11,29.92,7,3,16,0.00
2013-1-23,46,42,40,45,38,31,96,86,69,30.22,29.89,12,3,20,0.73
2013-1-24,48,42,35,45,40,34,97,94,90,30.23,30.09,9,3,16,0.23
2013-1-25,49,46,42,48,45,40,96,95,93,30.14,29.98,8,4,18,0.36
2013-1-26,46,42,39,43,41,38,96,94,88,30.14,29.97,13,3,22,0.71
2013-1-27,45,42,38,43,40,37,97,95,91,30.20,30.09,15,4,25,0.52
2013-1-28,46,45,43,44,43,41,95,93,85,30.32,30.15,16,11,27,0.53
2013-1-29,48,46,45,47,45,43,96,95,94,30.54,30.32,17,9,27,0.46
2013-1-30,49,48,45,48,47,44,96,96,95,30.54,30.50,9,4,19,1.28
2013-1-31,55,48,42,52,46,41,97,94,89,30.47,30.37,0,0,5,0.13
2013-2-1,59,49,42,51,45,39,96,87,66,30.38,30.24,1,0,11,0.01
2013-2-2,57,46,39,47,42,37,91,85,65,30.35,30.23,7,2,15,0.00
2013-2-3,49,46,43,45,43,40,92,89,86,30.35,30.25,5,1,10,0.00
2013-2-4,52,46,42,47,43,40,95,89,80,30.27,29.98,15,3,26,0.00
2013-2-5,52,47,44,49,44,41,94,91,85,30.08,29.94,13,7,26,0.44
2013-2-6,48,45,40,45,42,38,94,90,84,30.11,29.84,11,6,30,0.51
2013-2-7,43,40,35,40,38,34,96,92,85,30.18,29.95,10,3,22,0.47
2013-2-8,45,38,31,41,35,30,97,90,79,30.32,30.18,14,4,24,0.03
2013-2-9,43,40,36,41,38,34,95,94,91,30.33,30.30,7,2,13,0.09
2013-2-10,48,42,40,45,40,37,96,91,81,30.37,30.32,10,2,15,0.08
2013-2-11,46,43,40,45,41,37,95,91,84,30.43,30.35,6,1,10,0.29
2013-2-12,50,48,46,49,47,45,96,95,94,30.52,30.42,8,4,14,0.39
2013-2-13,50,47,44,48,46,42,96,94,89,30.54,30.47,8,2,13,0.14
2013-2-14,56,46,39,51,44,38,96,93,83,30.58,30.47,11,2,14,0.01
2013-2-15,54,45,33,49,42,32,97,90,78,30.48,30.21,9,2,11,0.00
2013-2-16,51,46,41,48,44,38,95,93,87,30.33,30.27,13,5,21,0.38
2013-2-17,53,42,37,46,39,36,97,90,75,30.34,30.11,11,2,14,0.19
2013-2-18,47,41,37,43,39,35,95,92,82,30.11,29.72,9,3,15,0.53
2013-2-19,50,43,38,46,40,36,96,90,78,30.04,29.68,12,2,20,0.67
2013-2-20,45,40,34,42,38,33,96,93,84,30.14,30.04,13,3,25,0.35
2013-2-21,47,44,42,45,42,39,95,91,84,30.25,30.14,15,6,25,0.54
2013-2-22,48,46,42,47,44,38,96,92,84,30.21,29.98,19,11,37,0.87
2013-2-23,49,44,40,42,40,38,93,85,74,30.47,30.15,22,9,34,0.18
2013-2-24,51,45,40,44,40,37,93,84,74,30.47,30.08,13,4,27,0.11
2013-2-25,49,44,39,45,40,36,94,87,74,30.42,30.07,21,10,32,0.43
2013-2-26,51,42,36,43,38,35,96,84,65,30.41,30.25,6,2,14,0.06
2013-2-27,51,47,43,49,45,39,95,91,81,30.31,30.21,7,2,16,0.09
2013-2-28,52,51,50,51,50,48,96,95,94,30.47,30.21,16,8,30,0.80
2013-3-1,54,51,46,52,49,45,96,95,92,30.48,30.34,13,4,24,0.09
2013-3-2,49,46,41,47,45,40,96,95,94,30.35,30.24,14,2,17,0.08
2013-3-3,51,41,35,45,38,34,97,89,76,30.36,30.24,13,4,19,0.01
2013-3-4,52,43,33,44,38,32,96,84,62,30.24,29.89,13,3,26,0.00
2013-3-5,45,43,41,43,40,35,95,92,76,29.89,29.63,10,1,17,0.57
2013-3-6,47,44,42,45,42,40,96,93,87,29.95,29.58,12,4,24,0.50
2013-3-7,58,45,36,48,41,34,96,87,69,30.06,29.96,10,3,14,0.15
2013-3-8,55,42,34,48,39,33,96,89,73,30.23,30.05,13,4,22,0.01
2013-3-9,54,44,37,48,41,36,96,90,79,30.52,30.23,11,4,17,0.00
2013-3-10,51,44,37,47,42,35,94,90,81,30.52,30.43,5,1,8,0.04
2013-3-11,51,49,47,50,48,46,95,95,93,30.45,30.26,5,1,9,0.05
2013-3-12,54,49,47,51,48,46,96,94,89,30.26,30.21,11,3,17,0.01
2013-3-13,55,48,45,50,46,44,95,93,83,30.27,30.13,9,1,15,0.00
2013-3-14,52,49,46,50,46,44,95,92,83,30.25,30.09,12,5,28,0.22
2013-3-15,54,49,42,53,48,41,96,95,94,30.27,30.23,11,2,20,0.18
2013-3-16,45,43,41,44,41,37,96,94,84,30.24,30.10,19,6,31,0.55
2013-3-17,52,43,38,43,38,35,94,82,67,30.34,30.21,19,6,28,0.06
2013-3-18,56,43,34,48,40,33,96,88,72,30.31,30.10,12,2,21,0.07
2013-3-19,51,46,40,47,41,36,93,85,75,30.11,29.67,21,3,42,0.68
2013-3-20,50,45,38,47,41,32,95,89,75,30.23,29.58,25,13,48,0.95
2013-3-21,45,38,35,39,34,31,92,84,73,30.36,30.22,19,9,32,0.08
2013-3-22,48,38,31,41,35,29,96,88,75,30.42,30.35,13,3,26,0.23
2013-3-23,47,39,33,38,34,31,95,84,66,30.42,30.28,13,3,19,0.02
2013-3-24,55,43,37,41,36,34,90,77,59,30.29,30.10,8,2,10,0.00
2013-3-25,54,44,37,44,38,35,93,82,67,30.11,29.96,9,2,15,0.00
2013-3-26,50,43,36,48,41,35,95,93,90,30.05,29.97,5,1,8,0.03
2013-3-27,58,51,44,53,48,43,95,91,82,30.01,29.93,7,0,10,0.02
2013-3-28,59,53,48,55,50,46,95,90,81,30.17,30.01,8,2,11,0.01
2013-3-29,59,53,47,55,50,46,95,90,75,30.24,30.14,16,4,22,0.01
2013-3-30,72,57,47,56,49,-100,95,80,50,30.17,29.95,13,3,30,0.01
2013-3-31,65,54,48,55,50,46,95,88,68,30.05,29.99,13,4,23,0.00
2013-4-1,56,52,48,54,50,47,96,94,90,30.22,30.05,7,3,12,0.02
2013-4-2,54,49,45,51,47,44,95,93,87,30.26,30.19,7,2,11,0.01
2013-4-3,55,49,43,48,45,41,95,88,78,30.20,29.92,8,2,13,0.00
2013-4-4,52,50,48,51,48,45,95,94,91,29.93,29.71,19,6,40,0.41
2013-4-5,51,49,47,49,48,45,96,95,93,29.98,29.83,17,10,44,0.51
2013-4-6,52,48,44,50,46,43,95,93,87,30.04,29.67,21,7,38,0.53
2013-4-7,50,45,42,49,43,39,95,92,88,30.01,29.62,21,12,44,0.77
2013-4-8,52,45,39,45,41,36,95,86,73,30.33,30.01,12,6,22,0.08
2013-4-9,55,47,39,49,43,37,94,86,77,30.37,30.26,4,0,8,0.01
2013-4-10,53,49,43,51,46,39,95,90,81,30.37,30.20,15,7,28,0.23
2013-4-11,54,45,39,48,18,-100,96,72,75,30.39,30.19,13,4,20,0.01
2013-4-12,53,44,36,48,-13,-100,95,53,78,30.20,29.93,19,6,28,0.09
2013-4-13,54,46,42,43,40,38,92,81,64,30.16,30.01,19,10,29,0.11
2013-4-14,52,43,38,46,39,35,95,87,76,30.14,29.99,12,3,18,0.12
2013-4-15,56,44,37,47,40,35,96,84,68,30.23,30.00,13,4,18,0.04
2013-4-16,61,49,41,49,43,39,93,81,64,30.44,30.23,11,4,15,5.08
2013-4-17,59,49,41,50,44,39,94,83,68,30.53,30.43,9,4,13,0.00
2013-4-18,56,51,44,49,45,40,93,82,68,30.51,30.36,8,3,14,0.04
2013-4-19,53,51,49,52,49,48,95,94,92,30.37,30.23,10,5,21,0.73
2013-4-20,59,51,48,51,47,44,95,86,73,30.39,30.31,10,5,14,0.14
2013-4-21,56,50,47,50,47,42,93,86,77,30.34,30.29,7,3,14,0.01
2013-4-22,68,52,40,48,42,35,95,73,32,30.42,30.32,17,4,28,0.01
2013-4-23,61,52,42,47,41,34,88,69,37,30.37,30.19,18,6,32,0.00
2013-4-24,74,57,42,42,38,30,89,54,22,30.24,30.01,19,5,32,0.00
2013-4-25,61,52,44,50,46,41,90,79,67,30.19,30.05,17,6,26,0.00
2013-4-26,59,51,43,54,47,41,98,86,65,30.28,30.19,17,4,25,0.00
2013-4-27,59,51,43,53,48,42,97,89,77,30.35,30.27,7,2,11,0.00
2013-4-28,62,54,50,57,52,49,97,91,78,30.34,30.17,10,3,19,0.15
2013-4-29,57,52,45,52,47,41,97,84,66,30.27,30.16,15,9,22,0.17
2013-4-30,57,48,41,47,42,40,96,81,61,30.47,30.27,15,6,24,0.03
2013-5-1,61,50,36,49,43,35,96,77,54,30.53,30.42,18,6,28,0.01
2013-5-2,70,58,48,50,45,39,86,64,42,30.43,30.27,19,6,30,0.00
2013-5-3,68,55,44,52,48,42,95,77,56,30.33,30.14,19,6,28,0.00
2013-5-4,85,66,48,54,47,36,96,59,22,30.14,29.85,10,2,20,0.00
2013-5-5,86,67,52,51,46,42,94,52,23,29.90,29.65,13,4,27,0.00
2013-5-6,63,56,50,54,52,47,95,85,72,29.97,29.83,10,4,17,0.00
2013-5-7,59,54,52,55,52,49,95,92,84,30.09,29.97,11,5,16,0.00
2013-5-8,60,55,52,54,52,50,94,88,79,30.21,30.09,11,3,16,0.00
2013-5-9,63,55,50,55,52,49,96,88,75,30.24,30.12,15,6,25,0.00
2013-5-10,56,51,48,54,48,-100,97,93,86,30.27,30.18,7,2,11,0.00
2013-5-11,65,57,50,57,52,-100,96,86,74,30.27,30.07,6,2,11,0.00
2013-5-12,61,58,56,57,55,53,97,92,85,30.17,30.09,11,4,20,0.09
2013-5-13,59,54,50,57,53,49,98,96,88,30.28,30.08,15,4,25,0.16
2013-5-14,62,52,42,55,48,40,98,88,73,30.25,30.15,12,4,17,0.04
2013-5-15,58,49,41,53,47,39,96,92,82,30.15,30.02,9,3,20,0.09
2013-5-16,56,50,50,53,36,-100,97,93,87,30.03,29.96,13,4,22,0.15
2013-5-17,60,53,47,54,47,-100,98,89,77,30.11,30.01,10,3,15,0.34
2013-5-18,56,53,50,55,52,48,97,95,91,30.31,30.11,10,3,19,0.11
2013-5-19,61,54,44,53,50,41,97,87,73,30.46,30.31,16,9,27,0.05
2013-5-20,61,51,41,53,46,40,98,87,71,30.39,29.99,15,6,22,0.05
2013-5-21,50,48,46,49,47,45,97,95,88,30.02,29.92,18,6,28,0.86
2013-5-22,54,49,45,53,48,44,97,96,93,30.01,29.96,11,5,20,0.65
2013-5-23,54,50,48,52,49,47,98,96,90,30.04,29.99,15,6,26,1.16
2013-5-24,60,52,49,56,51,48,98,94,84,30.11,30.01,12,6,21,0.89
2013-5-25,60,54,49,54,51,48,97,90,80,30.11,29.95,9,3,17,0.07
2013-5-26,58,54,52,54,52,51,97,93,86,30.08,29.95,13,6,26,0.18
2013-5-27,56,54,52,55,53,51,98,97,95,29.99,29.75,14,6,35,1.27
2013-5-28,57,54,51,55,52,49,98,93,82,29.99,29.75,12,5,22,0.58
2013-5-29,61,55,51,57,53,50,98,94,86,30.09,29.65,14,6,29,0.77
2013-5-30,59,54,49,55,51,48,97,90,80,30.29,30.09,10,3,16,0.07
2013-5-31,63,54,44,56,51,43,98,88,76,30.37,30.25,15,6,23,0.02
2013-6-1,65,57,48,59,53,47,97,88,74,30.28,30.09,10,4,13,0.00
2013-6-2,63,56,52,56,53,46,96,89,79,30.13,30.08,18,8,24,0.01
2013-6-3,63,56,49,55,51,47,94,85,70,30.14,30.09,19,7,30,0.01
2013-6-4,67,57,46,57,52,45,97,83,64,30.10,30.01,18,6,28,0.00
2013-6-5,66,58,51,59,54,50,97,89,76,30.13,30.05,17,7,28,0.00
2013-6-6,62,56,50,55,52,49,97,89,78,30.10,30.06,18,7,29,0.00
2013-6-7,64,56,48,57,52,47,97,89,73,30.19,30.09,11,4,19,0.00
2013-6-8,62,56,47,54,51,46,97,84,69,30.20,30.11,21,8,34,0.00
2013-6-9,62,56,49,53,50,44,90,80,64,30.15,30.05,20,10,35,0.00
2013-6-10,65,54,46,53,48,42,92,78,61,30.07,29.98,16,7,26,0.00
2013-6-11,59,54,49,54,51,48,96,91,81,30.18,30.03,8,2,13,0.11
2013-6-12,61,55,48,56,52,47,97,91,78,30.22,30.16,7,2,13,0.04
2013-6-13,64,58,53,59,55,52,97,90,78,30.31,30.19,9,3,13,0.41
2013-6-14,65,58,51,59,54,49,97,86,73,30.31,30.00,16,5,27,0.03
2013-6-15,63,56,48,59,53,47,97,92,86,30.06,29.96,9,2,14,0.02
2013-6-16,67,59,55,58,55,52,93,85,68,30.18,30.06,10,2,16,0.00
2013-6-17,67,57,49,58,54,48,96,90,71,30.14,30.02,12,4,22,0.05
2013-6-18,58,54,49,55,52,48,97,93,84,30.03,29.98,15,5,26,0.19
2013-6-19,63,56,50,58,54,49,97,90,79,30.13,29.98,11,4,18,0.36
2013-6-20,64,56,53,58,54,49,96,92,79,30.14,30.09,7,2,14,0.24
2013-6-21,64,62,58,54,53,51,78,74,71,30.17,30.14,11,10,18,0.00
2013-6-22,70,64,50,60,57,49,97,79,67,30.08,29.88,8,3,10,0.03
2013-6-23,65,60,58,62,59,56,97,95,87,29.87,29.66,9,3,16,0.30
2013-6-24,61,57,55,57,56,54,97,94,82,29.73,29.65,12,3,21,0.40
2013-6-25,62,57,53,59,56,50,97,95,86,29.85,29.69,14,4,26,0.47
2013-6-26,63,59,57,60,57,53,97,93,83,30.05,29.85,10,3,20,0.19
2013-6-27,63,60,57,60,58,56,96,94,88,30.20,29.99,9,2,18,0.02
2013-6-28,73,64,57,65,60,56,97,88,74,30.16,30.10,3,0,7,0.01
2013-6-29,74,66,58,65,60,57,96,85,70,30.15,29.99,14,4,20,0.01
2013-6-30,72,64,58,65,61,57,97,88,77,29.99,29.91,12,5,17,0.00
2013-7-1,71,63,59,64,60,57,96,90,79,30.08,29.96,16,8,23,0.00
2013-7-2,68,62,58,61,58,56,96,87,77,30.13,30.06,18,8,28,0.00
2013-7-3,64,58,53,56,53,50,96,83,70,30.19,30.11,19,8,32,0.00
2013-7-4,65,58,53,54,51,49,88,78,63,30.19,30.10,18,8,28,0.00
2013-7-5,64,59,53,55,52,49,87,79,70,30.12,30.02,13,7,22,0.00
2013-7-6,64,58,52,55,52,48,92,80,68,30.03,29.93,17,7,24,0.00
2013-7-7,64,58,55,56,53,52,90,82,69,30.02,29.96,15,7,22,0.00
2013-7-8,66,59,55,56,52,-100,91,81,66,30.10,30.01,16,7,28,0.00
2013-7-9,60,55,50,55,52,47,97,90,81,30.11,30.07,17,6,28,0.00
2013-7-10,64,57,52,55,50,-100,95,80,67,30.12,30.02,19,10,33,0.00
2013-7-11,66,58,53,54,50,48,86,75,57,30.11,30.02,18,7,31,0.00
2013-7-12,59,53,47,51,48,45,96,82,67,30.12,30.03,17,6,24,0.00
2013-7-13,64,55,44,54,49,43,95,82,67,30.18,30.06,18,7,30,0.00
2013-7-14,65,55,46,54,50,45,97,84,64,30.12,30.03,19,7,32,0.00
2013-7-15,72,59,51,57,53,49,96,82,53,30.06,29.83,16,6,28,0.00
2013-7-16,60,54,50,57,53,49,96,94,87,30.04,29.80,12,3,19,0.00
2013-7-17,63,57,54,58,54,51,97,91,80,30.22,30.04,8,2,13,0.00
2013-7-18,66,57,50,57,53,49,97,87,70,30.24,30.14,18,6,28,0.00
2013-7-19,64,58,53,57,54,51,95,87,75,30.18,30.09,18,8,31,0.00
2013-7-20,64,57,55,57,53,-100,94,87,77,30.13,30.02,18,9,28,0.00
2013-7-21,66,59,52,58,55,51,96,86,75,30.04,29.95,8,0,20,0.00
2013-7-22,65,57,51,57,53,48,96,87,72,30.06,29.98,16,5,203,0.00
2013-7-23,62,55,50,55,52,49,97,91,79,30.07,30.01,20,3,203,0.00
2013-7-24,61,53,48,54,50,47,97,90,78,30.10,30.03,22,6,203,0.00
2013-7-25,65,54,46,55,50,45,98,86,67,30.12,30.06,18,6,32,0.00
2013-7-26,62,54,47,54,50,46,97,85,70,30.21,30.09,19,7,34,0.00
2013-7-27,67,60,54,56,54,51,92,81,68,30.23,30.09,16,9,25,0.00
2013-7-28,64,59,54,58,55,52,94,86,77,30.10,30.01,11,5,17,0.00
2013-7-29,65,58,53,59,54,51,95,89,80,30.09,30.00,10,4,15,0.00
2013-7-30,65,60,56,58,56,53,93,87,77,30.17,30.09,11,5,17,0.00
2013-7-31,63,59,52,59,56,51,97,90,83,30.16,30.10,9,4,14,0.00
2013-8-1,58,56,54,57,55,53,97,97,94,30.15,30.09,8,2,15,0.05
2013-8-2,65,58,55,61,56,54,98,94,84,30.17,30.10,11,2,14,0.07
2013-8-3,63,58,53,57,54,50,97,89,78,30.14,30.00,17,6,27,0.01
2013-8-4,61,56,53,57,54,52,96,93,84,30.07,30.01,16,6,25,0.00
2013-8-5,61,55,50,56,52,49,97,92,80,30.08,29.98,17,6,25,0.00
2013-8-6,60,54,48,54,51,47,97,91,81,30.05,29.94,16,6,27,0.00
2013-8-7,60,53,50,54,51,49,97,94,81,30.13,30.01,12,2,18,0.00
2013-8-8,63,56,51,58,54,50,97,93,80,30.10,29.96,18,3,27,0.02
2013-8-9,64,57,52,58,54,51,97,91,76,30.00,29.92,15,6,24,0.01
2013-8-10,60,56,53,55,54,52,96,92,83,30.09,29.97,8,2,14,0.00
2013-8-11,61,56,52,58,54,51,97,94,87,30.11,30.03,7,1,11,0.01
2013-8-16,65,59,57,64,53,-100,97,92,87,30.07,29.98,0,0,5,0.01
2013-8-17,68,61,56,64,57,-100,98,93,88,30.12,30.06,4,0,9,0.01
2013-8-18,73,64,56,65,60,55,98,88,69,30.15,30.06,13,4,22,0.01
2013-8-19,72,56,55,64,39,-100,98,84,71,30.16,30.09,15,6,26,0.00
2013-8-20,70,60,52,60,52,-100,98,83,63,30.16,30.01,15,5,28,0.00
2013-8-21,73,59,51,58,53,47,98,83,58,30.02,29.88,16,4,25,0.00
2013-8-22,59,53,46,57,52,45,97,95,89,29.97,29.90,7,1,12,0.00
2013-8-23,62,58,53,60,57,52,98,96,91,29.98,29.94,6,2,14,0.06
2013-8-24,64,58,56,59,54,-100,98,91,83,29.94,29.89,11,3,15,0.01
2013-8-25,64,57,51,61,56,50,99,95,85,29.95,29.92,4,1,11,0.00
2013-8-26,63,57,51,60,55,50,98,94,74,29.97,29.91,11,2,21,0.59
2013-8-27,70,62,60,68,61,59,99,98,94,29.97,29.87,7,1,13,0.92
2013-9-8,71,62,56,66,60,55,99,94,82,30.07,30.01,16,4,29,0.01
2013-9-9,67,61,54,63,59,53,99,93,84,30.04,29.94,15,5,28,0.01
2013-9-10,71,63,56,64,60,55,99,90,77,29.94,29.75,11,2,18,0.00
2013-9-11,64,60,57,62,59,56,98,95,87,30.00,29.78,11,4,19,0.00
2013-9-12,67,62,60,63,60,59,98,94,85,30.02,29.98,7,1,8,0.00
2013-9-13,65,62,59,62,60,58,98,95,89,30.00,29.88,9,3,14,0.01
2013-9-14,62,61,60,61,60,59,97,96,96,29.88,29.77,6,2,12,0.01
2013-9-15,61,61,61,60,60,60,97,97,97,29.79,29.79,0,0,0,0.00
2013-10-18,67,57,51,57,52,50,99,87,61,30.17,30.06,12,2,16,0.00
2013-10-19,64,53,49,58,49,-100,98,91,78,30.16,30.09,13,3,19,0.00
2013-10-20,58,53,47,57,52,47,100,98,95,30.16,30.05,11,2,18,0.00
2013-10-21,59,52,47,58,52,47,100,98,95,30.09,29.96,7,1,10,0.01
2013-10-22,57,54,51,57,54,51,100,99,98,30.06,30.00,1,0,6,0.01
2013-10-23,58,54,49,57,53,48,100,98,95,30.05,30.00,9,2,13,0.02
2013-10-24,58,52,48,57,51,47,98,96,91,30.11,30.02,10,2,16,0.01
2013-12-24,51,42,37,50,42,37,100,98,92,30.62,30.47,4,0,11,0.01
2013-12-25,49,41,36,46,40,36,100,97,86,30.50,30.36,5,0,12,0.01
2013-12-26,53,42,37,46,40,36,98,91,75,30.37,30.19,6,2,12,0.01
2013-12-27,54,45,38,50,43,37,97,94,85,30.41,30.18,8,3,14,0.00
2013-12-28,51,42,38,47,39,-100,99,93,86,30.53,30.41,12,1,17,0.00
2013-12-29,49,42,37,46,40,37,99,95,86,30.47,30.26,3,1,8,0.00
2013-12-30,52,45,40,48,43,39,97,92,86,30.27,30.19,10,2,14,0.00